Regional Weather Roundup
Issued by NWS

Home | Current Version | Previous Version | Graphics & Text | Print | Product List | Glossary On
Versions: 1 2 3 4 5 6 7 8 9 10 11 12 13 14 15 16 17 18 19 20 21 22 23 24 25 26 27 28 29 30 31 32 33 34 35 36 37 38 39 40 41 42 43 44 45 46 47 48 49 50
000
ASUS45 KBOU 031007
RWRCO

WEATHER ROUNDUP FOR COLORADO
NATIONAL WEATHER SERVICE DENVER/BOULDER CO
400 AM MDT THU SEP 03 2015

NOTE: "FAIR" INDICATES FEW OR NO CLOUDS BELOW 12000 FEET WITH NO
SIGNIFICANT WEATHER AND/OR OBSTRUCTIONS TO VISIBILITY.

COZ001>005-013-030-031-031100-
...NORTHWEST COLORADO...

CITY           SKY/WX    TMP DP  RH WIND       PRES   REMARKS
CRAIG          PTCLDY    48  45  89 S3        30.11S
HAYDEN         NOT AVBL
MEEKER         PTCLDY    51  47  86 NE5       30.13S
MOUNT WERNER   NOT AVBL
STEAMBOAT SPGS PTCLDY    50  44  81 CALM      30.16F
WALDEN         MOCLDY    46  37  71 E5        30.25S
$$

COZ006>008-011-031100-
...WEST CENTRAL VALLEYS...

CITY           SKY/WX    TMP DP  RH WIND       PRES   REMARKS
GRAND JUNCTION MOCLDY    71  49  45 E12       30.01S
MONTROSE       CLOUDY    65  49  56 SE7       30.13F
EAGLE          MOCLDY    55  46  71 CALM      30.20S
RIFLE          PTCLDY    57  52  83 CALM      30.09S
DELTA          CLOUDY    66  49  54 E7        30.09S
NUCLA          CLOUDY    64  45  48 SE5       30.17S
$$

COZ017>023-064>068-031100-
...SOUTHWEST COLORADO...

CITY           SKY/WX    TMP DP  RH WIND       PRES   REMARKS
DURANGO        CLOUDY    60  50  69 NW5       30.23S
CORTEZ         CLOUDY    61  57  87 CALM      30.18R
PAGOSA SPRINGS CLOUDY    57  47  69 CALM      30.30F
TELLURIDE      CLOUDY    56  45  66 CALM      30.36F
WOLF CREEK PAS NOT AVBL
$$

COZ009-010-012-014-032>034-037-058>063-031100-
...CENTRAL COLORADO...

CITY           SKY/WX    TMP DP  RH WIND       PRES   REMARKS
ASPEN          MOCLDY    54  44  69 S6        30.24S
BUENA VISTA    CLOUDY    52  43  73 NW3       30.28S
COPPER MTN     CLOUDY    52  36  54 S12       30.54S
BERTHOUD PASS  FAIR      43  32  65 W17       30.57S
COTTONWOOD PAS CLOUDY    57  37  47 SE3       30.39S
GUNNISON       CLOUDY    48  45  87 CALM      30.31S
KREMMLING      MOCLDY    50  45  81 CALM      30.24S
LEADVILLE      CLOUDY    45  40  82 CALM      30.38F
MONARCH PASS   CLOUDY    45  36  70 SW15      30.63F
SALIDA         CLOUDY    61  43  52 N6        30.31S
SUNLIGHT       PTCLDY    48  43  81 CALM      30.46S
WILKERSON PASS MOCLDY    46  36  66 W7        30.51S
$$

COZ069>075-031100-
...SAN LUIS VALLEY/SANGRE DE CRISTO MOUNTAINS...

CITY           SKY/WX    TMP DP  RH WIND       PRES   REMARKS
ALAMOSA        MOCLDY    49  47  93 CALM      30.26S
LA VETA PASS   MOCLDY    46  37  71 S13G23    30.39R
SAGUACHE       CLOUDY    48  43  81 NW8       30.30S
$$

COZ035-036-038>040-031100-
...NORTHERN COLORADO FRONT RANGE...

CITY           SKY/WX    TMP DP  RH WIND       PRES   REMARKS
DENVER INTL AP PTCLDY    67  43  41 SW8       30.01S
DMNS CITY PARK   N/A     67  44  42 E8        30.01R
AURORA         PTCLDY    67  43  42 SW7       30.04R
FRONT RANGE AP NOT AVBL
ERIE MUNI ARPT MOCLDY    57  49  76 CALM      29.99F
BOULDER MUN AP MOCLDY    64  43  45 CALM      30.00S
CENTENNIAL     MOCLDY    68  42  38 W10       30.05S
BROOMFIELD     MOCLDY    73  39  29 W9        30.03F
FORT COLLINS   MOCLDY    64  46  52 N8        29.99F
LONGMONT       MOCLDY    59  48  66 CALM      30.00S
$$

COZ041-046-047-076>085-087-088-031100-
...PIKES PEAK/PALMER DIVIDE AND SOUTHERN FOOTHILLS...

CITY           SKY/WX    TMP DP  RH WIND       PRES   REMARKS
COLO. SPRINGS  PTCLDY    65  42  43 N10       30.08S
A. F. ACADEMY  PTCLDY    69  38  32 N8        30.10S
ELLICOTT       PTCLDY   N/A N/A N/A CALM      30.06S
FALCON         PTCLDY    66  38  36 MISG      30.14S
FORT CARSON    PTCLDY    62  44  53 N10       30.04S
LIMON          CLEAR     53  45  74 NW6       30.02S
MONUMENT HILL  MOCLDY    61  39  44 SW6       30.15R
TRINIDAD       MOCLDY    63  46  54 NW9       30.07R
$$

COZ042>045-048>051-090-091-031100-
...NORTHEAST COLORADO...

CITY           SKY/WX    TMP DP  RH WIND       PRES   REMARKS
GREELEY ARPT   PTCLDY    57  46  67 NW5       29.98S
AKRON          CLEAR     64  40  41 W10       29.95F
BURLINGTON     CLEAR     62  53  72 SW8       29.92S
WRAY           CLOUDY    59  51  74 W3        29.88S
STERLING       CLEAR     55  50  82 S3        29.91S
HOLYOKE        PTCLDY    61  55  82 W6        29.89S
FORT MORGAN    CLEAR     62  46  55 CALM      29.96S
$$

COZ086-089-092>099-031100-
...SOUTHEAST COLORADO...

CITY           SKY/WX    TMP DP  RH WIND       PRES   REMARKS
PUEBLO         PTCLDY    70  44  39 CALM      29.96S
LA JUNTA       MOCLDY    74  48  39 S8        29.93R
LAMAR          PTCLDY    63  51  65 CALM      29.89S
SPRINGFIELD    NOT AVBL
$$




USA.gov is the U.S. government's official web portal to all federal, state and local government web resources and services.